Погода в Борисове

Погода в Борисове : погода сейчас, прогноз погоды и архив. Всё, что Вы хотите узнать о погоде в Борисове!

Хотите узнать прогноз погоды в Борисове? Тогда Вам сюда: Погода в Борисове

Поиск расширенной информации на нашем сайте:

Другие новости

Новости СМИ2

Главная страница сайта

Новости сайта

02.10.2013

Напоминаем, что на нашем новом сайте вы можете получить высокодетализированные прогнозы погоды по пунктам России, СНГ и мира (включающие важные для авиации метеовеличины, такие как направление и скорость ветра, видимость, явления погоды, количество и форма облачности, нижняя и верхняя граница облачности), а также ознакомиться с разнообразными материалами по авиационной метеорологии и подборкой полезных ссылок на эту тему.

Сайт Метеоцентр.Азия посвящён разработке технологий оптимизации авиаметеорологического обслуживания, включая проектирование и перспективное создание нескольких автоматизированных авиаметеорологических систем:
- система выпуска высокодетальных прогностических карт явлений погоды для нижнего воздушного пространства по России и ближнему зарубежью;
- система верификации прогнозов TAF (выпускаемых синоптиками официальных АМСГ РФ и ближнего зарубежья) и AUTOTAF (выпускаемых сайтом Метеоцентр.Азия) - выявление ошибок, онлайн-сопоставление с фактической погодой METAR, автоматическое внесение коррективов в прогнозы при резком отклонении фактической погоды от прогноза, подсчёт оправдываемости прогнозов по элементам и в целом;
- система обработки, анализа и отображения авиаметеорологической информации для применения провайдерами метеорологической информации.


Погода в Борисове - сегодня

Время (UTC), дата Ветер
(°,м/с) 
Видим.   Явления Облачность Т
(°С)
Тd
(°С)
f(%) Тe
(°С)
Pmin
(гПа)
dP
(гПа)
Po
(мм)
O2
(г/м3)
Тmin Tmax R s Состояние
почвы
18 21.03.17 280 (З) 3200 м  слаб. ливневой дождь  10/10 100 м кучево-дожд. 
[Cb calv]
+6.6 +6.2 97 +6  1009.7  2.1  740  290    +6.7     
21 21.03.17 тихо ()   2200 м  дымка{ливн. осадки}  10/10 100 м 
[St]
+5.8 +5.5 98 +6  1010.9  1.1  741  291           
00 22.03.17 230 (ЮЗ) 0200 м  туман{ливн. осадки}  ?/?  
+4.3 +4.1 99 +5  1012.7  1.7  742  294           
09 22.03.17 210 (ЮЗ) 4000 м  дымка{туман}  10/10 150 м 
[St]
+7.9 +7.7 99 +7  1013.9  0.5  743  290           
12 22.03.17 320 (СЗ) 11000 м  слаб. дождь{туман}  10/10 400 м 
[Frnb]
+7.2 +6.7 97 +7  1014.8  0.9  744  291           
18 22.03.17 тихо ()   17000 м  {ливн. осадки}  10/10 1000 м 
[Sc]
+3 +2.6 97 +3  1018.6  1.3  746  297    +8.9     
21 22.03.17 тихо ()   15000 м    ясно 
+2 +1.7 98 +2  1020.2  1.5  748  299           
00 23.03.17 тихо ()   35000 м    ясно 
+0.1 -0.4 96 1022.5  2.1  749  302           
03 23.03.17 тихо ()   30000 м    ясно 
-1 -1.4 97 -1  1024  1.3  750  303           
06 23.03.17 280 (З) 29000 м    ясно 
+0.6 -0.6 92 +1  1025.6  1.7  751  302  -2.4         
09 23.03.17 300 (СЗ) 35000 м    ясно 
+7.3 +0.7 63 +8  1026.2  1.2  752  295           
12 23.03.17 200 (Ю) 25000 м    ясно 
+11.1 -3.1 37 +12  1025.2  -0.6  752  291           
15 23.03.17 тихо ()   35000 м    3/0 верхняя 
[Ci fib]
+11.5 -3.6 35 +12  1024.2  -1  751  291           
18 23.03.17 тихо ()   10 км    3/0 верхняя 
[Ci fib]
+5.3 -1.5 61 +5  1024.7  751  297    +12.1       
21 23.03.17 тихо ()   6000 м  дымка  ясно 
+3.8 -0.7 72 +4  1024.5  -0.4  751  298           
03 24.03.17 тихо ()   14000 м    10/10 960 м 
[Sc]
+1.3 -0.3 89 +1  1021.3  -1.7  748  300           
06 24.03.17 тихо ()   7000 м  дымка  10/10 1020 м 
[Sc]
+3 +0.4 83 +3  1020.7  -0.4  748  298  +1.2         
09 24.03.17 360 (С) 35000 м    6/6 750 м 
[Sc]
+7.4 +1.4 66 +7  1020  -0.3  748  293           
12 24.03.17 340 (С) 3{10}  10 км  в посл. час ливневой дождь  9/9 600 м кучево-дожд. 
[Cb calv]
+6.8 -0.4 60 +6  1020.1  748  294           
18 24.03.17 330 (СЗ) 35000 м    ясно 
+3.9 -5.9 49 +5  1022.7  2.2  749  298    +9.4  0.0     
21 24.03.17 310 (СЗ) 35000 м    ясно 
+0.8 -8.9 48 +1  1024.2  1.2  750  302           
00 25.03.17 330 (СЗ) 35000 м    ясно 
-1.5 -8.6 58 -1  1024.5  0.1  750  305           
03 25.03.17 280 (З) 35000 м    ясно 
-2.7 -7.4 70 -2  1024  -0.6  750  306           
06 25.03.17 220 (ЮЗ) 35000 м    ясно 
-1.4 -7.1 65 -1  1022.6  -1.3  749  304  -3.7         
09 25.03.17 210 (ЮЗ) 23000 м    9/0 средняя 
[Ac As]
+3.6 -7.9 43 +2  1019.7  -2.4  747  298           
Время (UTC), дата Ветер
(°,м/с) 
Видим.   Явления Облачность Т
(°С)
Тd
(°С)
f(%) Тe
(°С)
Pmin
(гПа)
dP
(гПа)
Po
(мм)
O2
(г/м3)
Тmin Tmax R s Состояние
почвы

Для получения пояснительной информации подведите курсор к названию столбца.

ПОГОДА в Борисове - архив

Всё, что Вы хотите узнать о погоде в Борисове - удобно и подробно!

Выберите нужную дату (начиная с 1 января 2015* года) и нажмите кнопку "Найти".
Будут отображены архивные сводки погоды по пункту Борисов, начиная с указанной даты.


Отображать данные в формате CSV (для использования в таблицах Excel)


Внимание! Наш архив погоды предназначен исключительно для личного некоммерческого использования в познавательных целях. Если Вам необходимы официальные справки о состоянии погоды (для производственных, юридических, коммерческих и т.п. целей), обращайтесь в органы Росгидромета.

*Примечание: данная дата относится к архиву по метеостанциям СССР (Россия, СНГ, Балтия).
Архив по метеостанциям Зарубежной Европы и Азии (кроме Китая) хранится 10 дней, по другим регионам земного шара (Китай, Африка, Америка, Австралия, Океания) - 1 день.

Борисов - район местоположения метеостанции


Название, широта, долгота, высота метеостанции:
Борисов 54.3°ш. 28.5°д. 189 м над ур. моря [Беларусь]

Дополнительная информация

В oтличие oт бoльшинства пoгoдных сайтoв мы публикуем пoдрoбную метеoинфoрмацию в детальнoм прoфессиoнальнoм фoрмате.

Характеристики температуры и влажнoсти вoздуха измеряются на высoте 2 м в тени вдали oт зданий и деревьев.
Скoрoсть ветра измеряется на высoте 10 м (на урoвне рoста челoвека скoрoсть ветра ниже в 1.5-2 раза). Если метеoстанция нахoдится в гoрoде или в лесу, тo скoрoсть ветра занижена на 2-4 м/с пo сравнению с oткрытым местoм. Скoрoсть ветра над акватoриями крупных рек и oзёр, а также на вершинах хoлмoв на 2-5 м/с выше, чем в oбычных услoвиях.
Атмoсфернoе давление в разных тoчках местнoсти мoжет значительнo oтличаться oт давления на метеoстанции, в зависимoсти oт услoвий рельефа (при пoдъёме на 10 м давление пoнижается примернo на 1 мм рт.ст.).